Погода в Завьялово

Россия / Удмуртская Республика     56°47′10″N   53°22′26″E
темп.,
°C
ветер,
м/с
пор.,
м/с
влажн.,
%
обл.,
%
осадки,
мм/ч
давл.,
гПа
погр.,
м
24 июня, чт
чт2401:00+18в119329 0.0 101911
04:00+17в11915 0.0 102011
07:00+21ююв228321 0.0 1019230
10:00+24ююз226914 0.0 1019729
13:00+27з3362100 0.7 10181213
16:00+28юз445645 1.4 10171051
19:00+26з487181 0.3 1015265
22:00+20ссз359250 2.9 101671
25 июня, пт
пт2501:00+18юз369398 0.4 1014103
04:00+18зюз3891100 0.5 1013143
07:00+21сз258538 0.1 1013233
10:00+27сз236290 0.1 1013629
13:00+31зсз454988 0.0 10121683
16:00+32зсз4648100 0.0 1011927
19:00+29сз47595 0.0 1009151
22:00+24ссз477212 0.0 1010125
26 июня, сб
сб2601:00+18с238844 6.8 101240
04:00+18зсз35885 7.1 101183
07:00+21сз36834 0.0 1011238
10:00+25ссз34635 0.0 1011841
13:00+29сз23521 0.0 10101523
16:00+30зсз134790 0.0 10091999
19:00+25ссз3467100 0.0 101073
22:00+22сз11795 0.0 101011
27 июня, вс
вс2701:00+20зсз22810 0.0 101014
04:00+18сз33825 0.0 101136
07:00+23сз356935 0.0 1012212
10:00+26с3454100 0.0 1012828
13:00+27св335217 0.0 10121010
16:00+28всв345026 0.0 10121065
19:00+26вюв24670 0.0 1012111
22:00+21в33730 0.0 101448
28 июня, пн
пн2801:00+19вюв22750 0.0 101512
04:00+18в227457 0.0 101514
07:00+21в34676 0.0 1016178
10:00+24вюв22565 0.0 1016570
13:00+27в234852 0.0 10161364
16:00+27всв344599 0.0 10151703
19:00+25всв35647 0.0 1015129
22:00+20юв2364100 0.0 101524